Flag for U.S.A. Weather past 2 weeks in Austin, Texas, U.S.A.

Now
78 °F

Passing clouds.


Feels Like: 81 °F
Forecast: 74 / 90 °F
Wind: 8 mph from South

Location: Camp Mabry / Austin City

Current Time: Jul 3, 2015 at 1:28:30 AM

Latest Report: Jul 3, 2015 at 12:51 AM


Visibility: 10 mi

Pressure: 29.95 "Hg

Humidity: 84%

Dew point: 73 °F

Location of AustinLocation

Historic Weather in Austin — Graph

°F

Austin temperature yesterday

Maximum temperature yesterday: 90 °F (at 3:51 PM)
Minimum temperature yesterday: 70 °F (at 6:51 AM)
Average temperature yesterday: 79 °F

Past Weeks' High & Low Weather Summary

 TemperatureHumidityPressure
High92 °F (Jun 24, 4:51 PM)97% (Jun 18, 4:51 AM)30.18 "Hg (Jun 18, 4:51 AM)
Low70 °F (Jul 2, 6:51 AM)50% (Jun 29, 3:51 PM)29.89 "Hg (Jun 18, 3:51 AM)
Average80 °F81%30.01 "Hg
* Reported Jun 17 11:51 PM — Jul 2 11:51 PM, Austin, Weather by CustomWeather, © 2015

Note: Actual official high and low records may vary slightly from our data, if they occured in-between our weather recording intervals... More about our weather records

Advertising

Austin weather history for previous 24 hours

 ConditionsComfort  
Time TempWeatherWind HumidityBarometerVisibility
11:51 PM
Thu, Jul 2
78 °FClear.6 mph84%29.95 "Hg10 mi
10:51 PM78 °FPassing clouds.3 mph84%29.94 "Hg10 mi
9:51 PM79 °FClear.5 mph79%29.91 "Hg10 mi
8:51 PM80 °FSunny.8 mph76%29.91 "Hg10 mi
7:51 PM82 °FPassing clouds.5 mph70%29.92 "Hg10 mi
6:51 PM84 °FBroken clouds.8 mph63%29.92 "Hg10 mi
5:51 PM86 °FScattered clouds.7 mph61%29.93 "Hg10 mi
4:51 PM89 °FPartly sunny.12 mph57%29.93 "Hg10 mi
3:51 PM90 °FBroken clouds.8 mph56%29.95 "Hg10 mi
2:51 PM88 °FBroken clouds.7 mph59%29.96 "Hg10 mi
1:51 PM87 °FBroken clouds.9 mph59%29.97 "Hg10 mi
12:51 PM86 °FBroken clouds.8 mph63%29.99 "Hg10 mi
11:51 AM84 °FBroken clouds.10 mph67%30.00 "Hg10 mi
10:51 AM81 °FPartly sunny.6 mph72%30.01 "Hg10 mi
9:51 AM79 °FOvercast.7 mph72%30.01 "Hg10 mi
8:51 AM75 °FPartly sunny.5 mph82%30.01 "Hg10 mi
7:59 AM72 °FScattered clouds.3 mph93%30.03 "Hg9 mi
6:51 AM70 °FFog.No wind97%30.01 "Hg6 mi
6:03 AM71 °FPassing clouds.No wind93%30.03 "Hg9 mi
5:51 AM71 °FPassing clouds.5 mph93%30.00 "Hg9 mi
4:51 AM72 °FPassing clouds.No wind93%29.98 "Hg9 mi
3:51 AM72 °FLow clouds.6 mph93%29.97 "Hg10 mi
2:59 AM71 °FPassing clouds.3 mph96%30.01 "Hg10 mi
1:51 AM72 °FClear.3 mph91%29.98 "Hg10 mi
Weather by CustomWeather, © 2015

See weather overviewHow to use our weather pages